Regional Weather Roundup
Issued by NWS

Home | Current Version | Previous Version | Text Only | Print | Product List | Glossary On
Versions: 1 2 3 4 5 6 7 8 9 10 11 12 13 14 15 16 17 18 19 20 21 22 23 24 25 26 27 28 29 30 31 32 33 34 35 36 37 38 39 40 41 42 43 44 45 46 47 48 49 50
000
ASCA44 KEWX 130220
RWRMX

LATIN AMERICA AND CARIBBEAN REGIONAL WEATHER ROUNDUP
NATIONAL WEATHER SERVICE AUSTIN/SAN ANTONIO TX
900 PM CDT SAT JUL 12 2014

NOTE: "FAIR" INDICATED FEW OR NO CLOUDS BELOW 12,000 FEET WITH NO
SIGNIFICANT WEATHER AND/OR OBSTRUCTIONS TO VISIBILITY.

BAJA CALIFORNIA

CITY           SKY/WX    TMP DP  RH WIND       PRES   REMARKS
LORETO           N/A    N/A N/A N/A MISG        N/A
LA PAZ         MOCLDY    88  68  51 N9        29.86  HX  91
MEXICALI       PTCLDY   104  36   9 E7        29.75  HX  98
S.J. DEL CABO  PTCLDY    82  72  69 N5        29.88
TIJUANA        SUNNY     72  57  60 NW13      29.97

NORTHWESTERN MEXICO

CITY           SKY/WX    TMP DP  RH WIND       PRES   REMARKS
CULIACAN       TSTM      75  75 100 NW6       29.92
DURANGO        CLOUDY    66  55  68 E12       30.24R
GUAYMAS        MOCLDY    91  77  62 CALM      29.77  HX 105
HERMOSILLO     MOCLDY    90  72  55 S8        29.84  HX  96
CD. JUAREZ     CLOUDY    81  54  39 E12       30.04
OBREGON        LGT RAIN  77  72  83 E8        29.84

NORTHEASTERN MEXICO

CITY           SKY/WX    TMP DP  RH WIND       PRES   REMARKS
CHIHUAHUA      MOCLDY    82  48  30 SE13      30.12
MATAMOROS      CLEAR     82  75  78 E9        30.08
MONTERREY      PTCLDY    86  55  35 E12       30.00R
NUEVO LAREDO   PTCLDY    90  72  55 SE12      30.00  HX  96
REYNOSA        PTCLDY    82  70  65 SE12      30.03
SALTILLO       PTCLDY    75  64  69 NE12      30.20R
TORREON        MOCLDY    84  52  32 NE3       30.05
CD. VICTORIA   PTCLDY    77  70  78 E9        30.05

WESTERN MEXICO

CITY           SKY/WX    TMP DP  RH WIND       PRES   REMARKS
AGUASCALIENTES MOCLDY    63  55  77 W5        30.29
DEL BAJIO      PTCLDY    68  59  73 CALM      30.28R
GUADALAJARA    MOCLDY    63  59  88 W9        30.21
MANZANILLO     MOCLDY    84  77  79 N6        29.79  HX  94
MAZATLAN       MOCLDY    82  70  65 SW9       29.84R
P. VALLARTA    CLOUDY    79  72  78 N7        29.86F
ZACATECAS      MOCLDY    64  46  52 SE9       30.32

CENTRAL MEXICO

CITY           SKY/WX    TMP DP  RH WIND       PRES   REMARKS
MEXICO CITY    MOCLDY    64  46  52 N15       30.33R
MORELIA        MOCLDY    61  59  94 CALM      30.23
POZA RICA      CLEAR     77  72  83 E7        30.06S
PUEBLA         MOCLDY    61  52  72 N3        30.37R
QUERETARO      PTCLDY    68  55  64 E15       30.30S
S. LUIS POTOSI MOCLDY    64  63  94 E12       30.30
TAMPICO        CLEAR     81  73  78 E7        30.03S
TOLUCA         MOCLDY    61  46  59 E13       30.40R

SOUTHERN MEXICO

CITY           SKY/WX    TMP DP  RH WIND       PRES   REMARKS
ACAPULCO       PTCLDY    86  77  74 W9        29.79S HX  97
OAXACA         PTCLDY    68  45  42 N6        30.24R
VERACRUZ       PTCLDY    77  72  83 N6        30.03R
ZIHUATANEJO    MOCLDY    88  75  66 CALM      29.83  HX  97

YUCATAN PENINSULA

CITY           SKY/WX    TMP DP  RH WIND       PRES   REMARKS
CAMPECHE       MOCLDY    82  72  69 N6        29.99R
CANCUN         PTCLDY    81  75  83 E5        30.04R
CHETUMAL       MOCLDY    84  77  79 NE12      29.98R HX  94
CD. DEL CARMEN RAIN      73  72  94 E14       30.05
COZUMEL        PTCLDY    77  75  94 E3        30.04R
MERIDA         MOCLDY    79  68  69 E3        30.02R
TAPACHULA      MOCLDY    82  73  74 CALM      29.83R
TUX. GUTIERREZ MOCLDY    81  68  65 NW9       29.96R
VILLAHERMOSA   CLOUDY    75  72  88 E14       30.05R

CENTRAL AMERICA

CITY           SKY/WX    TMP DP  RH WIND       PRES   REMARKS
MANAGUA        PTCLDY    79  72  78 CALM      29.83S

CARIBBEAN

CITY           SKY/WX    TMP DP  RH WIND       PRES   REMARKS
ARUBA          PTCLDY    82  77  83 E22       29.94R HX  91
CURACAO        PTCLDY    81  75  83 SE13      30.00R
KINGSTON       PTCLDY    86  73  66 SE20      29.97S HX  93
NASSAU         PTCLDY    82  75  78 E6        30.09S
SAN JUAN       PTCLDY    82  75  78 E8        30.08S
ST. CROIX      CLEAR     79  72  78 NE5       30.09R
ST. THOMAS     CLOUDY    82  75  78 E3        30.08S

$$




USA.gov is the U.S. government's official web portal to all federal, state and local government web resources and services.